Moses Lake, WA

3:03 AM PST on January 21, 2017 (GMT -0800)
Moses Lake

Weather History for KMWH - April, 2015

Change the Weather History Date:

Tuesday, April 28, 2015

  Actual Average Record
Temperature  
Mean Temperature 62 °F 53 °F  
Max Temperature 80 °F 68 °F 82 °F (1980)
Min Temperature 44 °F 39 °F 30 °F (2005)
Degree Days  
Heating Degree Days 3 12  
Month to date heating degree days 405 422  
Since 1 July heating degree days 4680 5594  
Cooling Degree Days 0 0  
Month to date cooling degree days 0 0  
Year to date cooling degree days 0 0  
Growing Degree Days 12 (Base 50)    
Moisture  
Dew Point 38 °F    
Average Humidity 46    
Maximum Humidity 70    
Minimum Humidity 21    
Precipitation  
Precipitation 0.00 in 0.02 in 0.14 in (2001)
Month to date precipitation 0.21 0.66  
Year to date precipitation 2.57 3.38  
Sea Level Pressure  
Sea Level Pressure 29.96 in    
Wind  
Wind Speed 8 mph (West)    
Max Wind Speed 18 mph    
Max Gust Speed 21 mph    
Visibility 10 miles    
Events      
T = Trace of Precipitation, MM = Missing Value Source: NWS Daily Summary

Daily Weather History Graph

Daily Weather History Graph

Search for Another Location

Airport or City:

Trip Planner

Search our weather history database for the weather conditions in past years. The results will help you decide how hot, cold, wet, or windy it might be!

Date:

Astronomy

Apr. 28, 2015 Rise Set
Actual Time 5:46 AM PDT 8:04 PM PDT
Civil Twilight 5:12 AM PDT 8:37 PM PDT
Nautical Twilight 4:30 AM PDT 9:20 PM PDT
Astronomical Twilight 3:43 AM PDT 10:07 PM PDT
Moon 2:51 PM PDT (4/28) 3:23 AM PDT (4/28)
Length of Visible Light 15h 25m
Length of Day
14h 17m
Waxing Gibbous, 75% of the Moon is Illuminated
Apr 28
Waxing Gibbous
May 3
Full
May 11
Last Quarter
May 17
New
May 25
First Quarter

Hourly Weather History & Observations

Time (PDT) Temp. Windchill Dew Point Humidity Pressure Visibility Wind Dir Wind Speed Gust Speed Precip Events Conditions
12:52 AM 48.9 °F - 36.0 °F 61% 30.09 in 10.0 mi North 6.9 mph - N/A   Clear
1:52 AM 48.0 °F - 36.0 °F 63% 30.07 in 10.0 mi North 9.2 mph - N/A   Clear
2:52 AM 45.0 °F 40.6 °F 35.1 °F 68% 30.06 in 10.0 mi North 8.1 mph - N/A   Clear
3:52 AM 46.9 °F - 35.1 °F 63% 30.05 in 10.0 mi North 8.1 mph - N/A   Clear
4:52 AM 45.0 °F 40.6 °F 35.1 °F 68% 30.04 in 10.0 mi North 8.1 mph - N/A   Clear
5:52 AM 44.1 °F 39.0 °F 35.1 °F 71% 30.04 in 10.0 mi North 9.2 mph - N/A   Clear
6:52 AM 48.0 °F - 36.0 °F 63% 30.03 in 10.0 mi NE 5.8 mph - N/A   Clear
7:52 AM 55.0 °F - 37.0 °F 51% 30.03 in 10.0 mi ENE 6.9 mph - N/A   Clear
8:52 AM 57.9 °F - 36.0 °F 44% 30.02 in 10.0 mi Calm Calm - N/A   Clear
9:52 AM 61.0 °F - 37.9 °F 42% 30.01 in 10.0 mi Calm Calm - N/A   Clear
10:52 AM 64.9 °F - 39.0 °F 39% 29.99 in 10.0 mi Calm Calm - N/A   Clear
11:52 AM 70.0 °F - 39.9 °F 33% 29.97 in 10.0 mi South 5.8 mph - N/A   Clear
12:52 PM 73.9 °F - 35.1 °F 24% 29.95 in 10.0 mi SSW 5.8 mph - N/A   Clear
1:52 PM 75.9 °F - 36.0 °F 23% 29.93 in 10.0 mi SW 6.9 mph - N/A   Clear
2:52 PM 78.1 °F - 36.0 °F 22% 29.90 in 10.0 mi South 5.8 mph - N/A   Clear
3:52 PM 79.0 °F - 37.0 °F 22% 29.88 in 10.0 mi SSW 11.5 mph - N/A   Partly Cloudy
4:52 PM 79.0 °F - 37.0 °F 22% 29.86 in 10.0 mi Variable 3.5 mph - N/A   Clear
5:52 PM 79.0 °F - 37.0 °F 22% 29.85 in 10.0 mi SSW 6.9 mph - N/A   Clear
6:52 PM 78.1 °F - 37.0 °F 23% 29.83 in 10.0 mi SW 4.6 mph - N/A   Clear
7:52 PM 71.6 °F - 46.4 °F 41% 29.84 in 10.0 mi WSW 10.4 mph - N/A   Overcast
8:52 PM 70.0 °F - 44.1 °F 39% 29.87 in 10.0 mi West 13.8 mph - N/A   Overcast
9:52 PM 66.0 °F - 44.1 °F 45% 29.90 in 10.0 mi WSW 13.8 mph - N/A   Overcast
10:52 PM 62.1 °F - 41.0 °F 46% 29.92 in 10.0 mi West 11.5 mph - N/A   Partly Cloudy
11:52 PM 57.9 °F - 39.9 °F 51% 29.94 in 10.0 mi WSW 13.8 mph - N/A   Partly Cloudy